Mpanda Airport

Jump to: basic info | weather | comments

Related pages: nearby airports | nearby navaids | notams | map

Basic information (top)

Codes: HTMP
Location: lon -6.350000, lat 31.083000, elev 3,520 ft / 1,073 m msl
Status: small_airport

Weather (top)

Current conditions for Sumbawanga Airport 103nm (191km) SSE (rec'd 2014/09/01 20:00Z):

HTSU 012000Z 13007KT 9999 BKN019 18/10 Q1024

Airport forecast for Julius Nyerere International Airport 485nm (899km) E (rec'd 2014/09/01 18:00Z):

TAF HTDA 011600Z 0118/0224 15005KT 9999 SCT023 
      BECMG 0121/0124 00000KT FEW022 
      BECMG 0203/0206 VRB10KT SCT024 
      BECMG 0209/0215 12010G18KT SCT025 BKN070 FM 021800 00000KT FEW023

Latest comments (top)

re: Uwanja wa ndege Mpanda: Thanks God Mpanda is on the right path, ... [read]

Uwanja wa ndege Mpanda: Uwanja ni mzuri saana, [read]

matengenezo: uwanja ukikamilika utakuwa mzuri.mmejitahidi. [read]

More... (top)

See also NOTAMs and nearby airports and navaids, or visit the Mpanda Airport page at the main OurAirports website..